Terminal Aerodrome Forecast
Issued by NWS Chicago, IL

Home | Current Version | Previous Version | Graphics & Text | Print | Product List | Glossary On
Versions: 1 2 3 4 5 6 7 8 9 10 11 12 13 14 15 16 17 18 19 20 21 22 23 24 25 26 27 28 29 30 31 32 33
000
FTUS43 KLOT 282155 AAB
TAFRFD
TAF AMD
KRFD 282155Z 2822/2918 VRB04KT P6SM SKC
     FM290800 18012KT P6SM OVC200
     FM291100 19016G25KT P6SM OVC120
     FM291500 20020G31KT 3SM -SHRA OVC030 PROB30 2915/2917 2SM
      -SNPL=

USA.gov is the U.S. government's official web portal to all federal, state and local government web resources and services.